Location: Recife
(8.0585°S, 34.8848°W)
Time: 10:06:31
(UTC-03:00)

SR - Pass Details

Date: 22 April 2026
Orbit: 568 x 852 km, 66.7° (Epoch: 12 May)

Event Time Altitude Azimuth Distance (km) Brightness Sun altitude
Rises 23:01:15 0° 328° (NNW) 3,396 - -84.0°
Reaches altitude 10° 23:03:50 10° 322° (NW) 2,453 - -84.4°
Maximum altitude 23:09:16 46° 250° (WSW) 1,091 - -85.1°
Drops below altitude 10° 23:14:29 10° 177° (S) 2,351 - -85.5°
Sets 23:16:55 0° 171° (S) 3,241 - -85.6°
